THORAD AGENA D DEB

Satellite information

Favourite Embed

Satellite Type and Status

DEBRISIN ORBIT

Key statistics

Satellite THORAD AGENA D DEB at a glance.

Uptime

20339

Days in orbit

Revolutions

≈ 14.0

Per day

Orbit

SSO

Sun Synchronous Orbit

Inclination

100.1

Latest

Satellite identification and parameters

Extended collection of information and parameters for THORAD AGENA D DEB.

Object identification

Identified? True

Debris? True

Object name: THORAD AGENA D DEB

International designator: 1970-025AK

Object number (NORAD): 4651

Object ID (CCSDS): 4651

Country: UNITED STATES OF AMERICA (US)

Current information (Y/N): Y

RCS size: SMALL

Orbital parameters

Period: 102.675 minutes

Inclination: 100.1334 deg

SMA: 7263.331 km

Apoapsis: 915.745 km

Periapsis: 854.647 km

RAAN: 275.0646 deg

Eccentricy: 0.00420589

Argument of periapsis: 223.7413 deg

Mean anomaly: 136.0414 deg

Mean motion: 14.02487567 rev/day

Mean motion (dot): 0.00002391 rev/day2

B* drag term: 0.0015764223 1/REarth

Two-line elements (TLE)

Creation date: Dec. 13, 2025, 5:47 p.m.

Reference frame: TEME

Reference center: EARTH

Epoch: Dec. 13, 2025, 7:35 a.m. UTC

TLE line 0: 0 THORAD AGENA D DEB

TLE line 1: 1 04651U 70025AK 25347.31636796 .00002391 00000-0 15764-2 0 9992

TLE line 2: 2 04651 100.1334 275.0646 0042059 223.7413 136.0414 14.02487567809664

Live tracking on map

Real-time ground track for satellite THORAD AGENA D DEB.

In-orbit conjunctions

A list of the most updated potential collisions computed for object THORAD AGENA D DEB.

Target Orbit TCA Probability of collision Miss distance Type
METEOR 1-14 LEO 2025-06-03 05:40:53 0.0001221936 765.0 (m) PAYLOAD
COSMOS 1275 DEB LEO 2025-01-02 00:40:52 0.0001230272 130.0 (m) DEBRIS
CZ-6A DEB LEO 2024-09-17 20:35:35 0.0006717015 481.0 (m) DEBRIS
CZ-6A DEB SSO 2024-07-28 11:19:40 0.002106109 9.0 (m) DEBRIS
CZ-6A DEB SSO 2024-06-12 21:46:17 0.0001436774 219.0 (m) DEBRIS

Associated space launch

Meteorological research and development satellite

THORAD AGENA D DEB was lifted into orbit during the mission ‘Thorad SLV-2G Agena D | Nimbus 4’, on board a Thorad SLV-2G Agena D space rocket.

The launch took place on April 8, 1970, 8:17 a.m. from Space Launch Complex 2E.

For more information about the launch, click the button.

Launch to space Thorad SLV-2G Agena D | Nimbus 4
Thorad SLV-2G Agena D | Nimbus 4

Agency: N/A

Status: Launch Successful

Launch date: April 8, 1970, 8:17 a.m. UTC

Rocket: Thorad SLV-2G Agena D

Launch pad: Space Launch Complex 2E

Location: Vandenberg SFB, CA, USA

...

Latest news about this satellite

There are no fresh news available about this satellite. Check back as we update our databases every day.


Newsletter sign-up

Weekly statistics, charts and insights to help you stay on top of the space industry.